Weather Roundup
Issued by NWS

Home | Current Version | Previous Version | Graphics & Text | Print | Product List | Glossary Off
Versions: 1 2 3 4 5 6 7 8 9 10 11 12 13 14 15 16 17 18 19 20 21 22 23 24 25 26 27 28 29 30 31 32 33 34 35 36 37 38 39 40 41 42 43 44 45 46 47 48 49 50

000
NZUS93 KARX 200410
HRRWXR

CURRENT HOURLY OBSERVATIONS ACROSS
MUCH OF THE UPPER MISSISSIPPI VALLEY
NATIONAL WEATHER SERVICE LA CROSSE WI
1100 PM CDT TUE AUG 19 2014


...SOUTHEAST MINNESOTA...


CITY           SKY/WX    TMP DP  RH WIND       PRES   REMARKS
ROCHESTER      PTCLDY    66  63  90 CALM      29.82R
ROCHESTER/MAYO FAIR      71  61  72 W3        29.81R
WINONA         PTCLDY    70  66  88 CALM      29.78S
AUSTIN         CLEAR     64  63  94 CALM      29.81S
ALBERT LEA     CLEAR     66  66 100 CALM      29.81S FOG
DODGE CENTER   PTCLDY    64  64 100 CALM      29.82R
PRESTON        PTCLDY    65  65  99 CALM      29.82S
OWATONNA       CLEAR     64  63  94 CALM      29.81R
FARIBAULT      CLEAR     66  61  82 CALM      29.80S HAZE
$$

...ELSEWHERE IN MINNESOTA...


CITY           SKY/WX    TMP DP  RH WIND       PRES   REMARKS
MINNEAPOLIS    MOCLDY    74  64  71 S3        29.79R
INTNL FALLS    CLEAR     53  53 100 CALM      29.81S
DULUTH         MOCLDY    64  59  83 CALM      29.82R
RED WING       MOCLDY    66  63  88 CALM      29.78R
REDWOOD FALLS  CLEAR     70  64  81 CALM      29.80R
MANKATO        CLEAR     68  61  77 SW5       29.80R
WORTHINGTON    CLEAR     66  10  11 SW5       29.85S
FAIRMONT       CLEAR     68  59  73 CALM      29.82R
$$

...SOUTHWEST WISCONSIN...


CITY           SKY/WX    TMP DP  RH WIND       PRES   REMARKS
LA CROSSE      CLEAR     69  65  86 CALM      29.77S
PRAIRIE DU CHI CLEAR     67  63  88 CALM      29.79S
BOSCOBEL       CLEAR     66  63  90 CALM      29.78F FOG
LONE ROCK      CLEAR     69  63  81 CALM      29.78S
PLATTEVILLE    CLEAR     69  64  83 SW3       29.82R
FORT MC COY    PTCLDY    63  62  95 CALM      29.79S
CAMP DOUGLAS   PTCLDY    61  61 100 CALM      29.79R FOG
VIROQUA        FAIR      65  65  99 CALM      29.80F
WIS DELLS      PTCLDY    64  61  89 CALM      29.78F
$$

...ELSEWHERE IN WISCONSIN...


CITY           SKY/WX    TMP DP  RH WIND       PRES   REMARKS
MILWAUKEE      PTCLDY    69  65  86 CALM      29.76S
MADISON        PTCLDY    66  63  90 CALM      29.78R
GREEN BAY      CLEAR     64  63  96 W6        29.74R
EAU CLAIRE     CLOUDY    67  65  93 CALM      29.78R
BLACK RVR FLS  FAIR      64  64 100 CALM      29.77F
MEDFORD        FOG       61  61  99 CALM      29.80R VSB 1/2
WAUSAU         PTCLDY    63  62  97 CALM      29.76S
WIS RAPIDS     CLEAR     64  62  93 W3        29.78S
MARSHFIELD     CLEAR     63  60  90 NW3       29.78S
RICE LAKE      CLOUDY    65  63  92 CALM      29.82S
$$

...NORTHEAST IOWA...


CITY           SKY/WX    TMP DP  RH WIND       PRES   REMARKS
WATERLOO       PTCLDY    71  66  84 SW5       29.80S
DUBUQUE        CLEAR     68  62  81 W3        29.82R
DECORAH        CLOUDY    66  64  94 CALM      29.80S
MASON CITY     PTCLDY    67  64  90 CALM      29.83S
CHARLES CITY   PTCLDY    68  66  94 SW3       29.82S
OELWEIN        CLEAR     68  64  88 CALM      29.82S
$$

...ELSEWHERE IN IOWA...


CITY           SKY/WX    TMP DP  RH WIND       PRES   REMARKS
DES MOINES     CLEAR     75  66  73 SE3       29.82R
IOWA CITY      CLEAR     70  66  87 CALM      29.83R
FORT DODGE     CLEAR     64  63  94 CALM      29.84R
MARSHALLTOWN   CLEAR     69  65  86 SW3       29.82S
CEDAR RAPIDS   CLEAR     67  65  93 CALM      29.81S
$$

...NORTHERN ILLINOIS...


CITY           SKY/WX    TMP DP  RH WIND       PRES   REMARKS
CHICAGO-OHARE  PTCLDY    72  62  71 W6        29.77R
DUPAGE         CLEAR     71  63  75 W5        29.78R
CHICAGO-MIDWAY PTCLDY    77  65  66 W6        29.77R
MOLINE         CLEAR     67  64  90 CALM      29.81R
ROCKFORD       CLEAR     67  62  84 S3        29.80R
STERLING       CLEAR     66  61  82 W5        29.80S
PEORIA         CLEAR     74  69  85 SW5       29.82R
$$

NOTE: "FAIR" INDICATES FEW OR NO CLOUDS BELOW 12,000 FEET WITH NO
SIGNIFICANT WEATHER AND/OR OBSTRUCTIONS TO VISIBILITY. WIND
SPEEDS ARE IN MILES-PER-HOUR.



USA.gov is the U.S. government's official web portal to all federal, state and local government web resources and services.